Stations météo

Publicité
Nancy/Essey, France (7180): Température de l'air & dewpoint: 18.01.2021 05:00:00 - 24.01.2021 05:00:00 (CET)Nancy/Essey, France (7180): Température de l'air 5cm: 18.01.2021 05:00:00 - 24.01.2021 05:00:00 (CET)Nancy/Essey, France (7180): Température de l'air -20cm & Température de l'air -100cm: 18.01.2021 05:00:00 - 24.01.2021 05:00:00 (CET)Nancy/Essey, France (7180): Vitesse du vent & gusts: 18.01.2021 05:00:00 - 24.01.2021 05:00:00 (CET)Nancy/Essey, France (7180): Direction du vent: 18.01.2021 05:00:00 - 24.01.2021 05:00:00 (CET)Nancy/Essey, France (7180): reduced air pressure: 18.01.2021 05:00:00 - 24.01.2021 05:00:00 (CET)Nancy/Essey, France (7180): visibility: 18.01.2021 05:00:00 - 24.01.2021 05:00:00 (CET)Nancy/Essey, France (7180): Ensoleillement: 18.01.2021 05:00:00 - 24.01.2021 05:00:00 (CET)Nancy/Essey, France (7180): Quantités de précipitations: 18.01.2021 05:00:00 - 24.01.2021 05:00:00 (CET)
Date & Time tt [°C] td [°C] tt 5cm [°C] tt -20cm [°C] tt -100cm [°C] ff [km/h] ff [knt] fx [km/h] fx [knt] dd ppp [hPa] vv [km] sd [min] rr [mm]
24.01.2021 05:00:00 1,6 -1,7 0,7 4,5 6,0 12 6 29 16 WSW 1001,2 58 0 0,0
24.01.2021 04:00:00 1,6 -2,2 0,4 4,5 6,1 13 7 42 23 W 1000,5 57 0 0,0
24.01.2021 03:00:00 1,9 -1,9 0,8 4,6 6,1 17 9 41 22 WSW 999,6 57 0 0,0
24.01.2021 02:00:00 1,9 -1,2 0,8 4,6 6,1 23 12 49 26 W 998,4 19 0 0,0
24.01.2021 01:00:00 2,2 -0,4 1,1 4,6 6,1 23 12 56 31 W 997,3 54 0 0,0
24.01.2021 00:00:00 2,3 0,4 1,5 4,6 6,1 23 12 50 27 W 996,1 15 0 0,0
23.01.2021 23:00:00 3,3 1,5 2,5 4,7 6,0 16 8 35 19 WSW 994,7 60 0 0,0
23.01.2021 22:00:00 3,4 1,8 1,7 4,7 6,0 11 6 26 14 WSW 994,2 60 0 0,0
23.01.2021 21:00:00 3,0 1,4 1,6 4,7 6,0 13 7 26 14 SSW 993,7 60 0 0,0
23.01.2021 20:00:00 3,6 2,0 2,5 4,7 6,1 13 7 29 16 SW 993,2 60 0 0,2
23.01.2021 19:00:00 3,7 2,1 2,8 4,7 6,0 19 10 35 19 SW 993,1 10 0 1,4
23.01.2021 18:00:00 3,8 2,9 3,3 4,7 6,0 5 3 19 10 ESE 992,9 10 0 1,0
23.01.2021 17:00:00 4,0 2,7 3,4 4,7 6,0 9 5 31 17 SSE 993,2 54 0 0,0
23.01.2021 16:00:00 3,9 3,0 3,4 4,7 6,0 11 6 23 13 SE 993,7 19 0 0,4
23.01.2021 15:00:00 3,8 2,5 3,2 4,6 6,0 14 8 26 14 SSE 994,2 10 0 1,4
23.01.2021 14:00:00 3,9 2,1 3,1 4,6 6,0 16 9 33 18 S 995,5 10 0 0,8
23.01.2021 13:00:00 4,8 1,8 4,6 4,6 6,0 13 7 30 16 S 996,6 58 0 0,0
23.01.2021 12:00:00 4,8 2,2 4,7 4,6 6,0 16 8 27 15 S 997,7 58 0 0,0
23.01.2021 11:00:00 4,9 2,6 4,4 4,6 6,0 15 8 24 13 S 998,6 45 31 0,0
23.01.2021 10:00:00 4,1 2,3 3,2 4,6 6,0 8 5 27 15 S 999,5 20 0 0,0
23.01.2021 09:00:00 3,7 2,1 3,3 4,6 6,0 15 8 31 17 S 1000,3 19 0 0,0
23.01.2021 08:00:00 4,1 2,4 3,5 4,6 5,9 14 8 25 13 S 1000,4 33 0 0,0
23.01.2021 07:00:00 4,0 2,7 3,4 4,7 5,9 15 8 22 12 S 1000,5 20 0 0,0
23.01.2021 06:00:00 3,9 2,6 3,2 4,7 6,0 11 6 22 12 S 1000,9 19 0 0,0
23.01.2021 05:00:00 3,6 2,4 3,1 4,8 5,9 9 5 18 10 S 1001,2 20 0 0,0
23.01.2021 04:00:00 3,6 2,4 2,8 4,8 5,9 12 7 24 13 S 1001,6 20 0 0,0
23.01.2021 03:00:00 3,5 2,5 1,9 4,8 5,9 9 5 12 7 S 1001,5 15 0 0,0
23.01.2021 02:00:00 2,5 1,8 1,2 4,9 5,9 5 3 10 5 SE 1001,4 26 0 0,0
23.01.2021 01:00:00 3,0 1,7 1,0 4,9 5,9 6 3 14 8 W 1001,3 42 0 0,0
23.01.2021 00:00:00 3,3 1,5 2,0 5,0 5,9 6 4 16 9 W 1001,2 59 0 0,0
22.01.2021 23:00:00 3,4 1,4 2,4 5,0 5,9 10 6 18 10 WNW 1000,3 52 0 0,0
22.01.2021 22:00:00 3,5 1,9 2,7 5,0 5,9 10 5 21 11 WNW 999,4 43 0 0,0
22.01.2021 21:00:00 3,6 2,3 2,9 5,1 5,9 11 6 28 15 NW 999,4 11 0 1,0
22.01.2021 20:00:00 3,8 2,8 3,1 5,1 5,9 12 7 25 13 NW 998,5 9 0 0,2
22.01.2021 19:00:00 3,7 2,8 2,9 5,1 5,9 11 6 18 10 NW 997,2 20 0 0,0
22.01.2021 18:00:00 3,4 2,4 2,5 5,1 5,9 9 5 14 8 NW 996,3 44 0 0,0
22.01.2021 17:00:00 3,3 2,0 2,7 5,1 5,9 6 4 11 6 N 996,2 20 0 0,6
22.01.2021 16:00:00 3,5 2,3 3,1 5,1 5,9 7 4 21 11 NE 996,4 12 0 0,6
22.01.2021 15:00:00 3,5 2,5 3,3 5,1 5,9 11 6 19 10 NE 995,9 8 0 0,8
22.01.2021 14:00:00 3,5 2,2 3,2 5,1 5,8 10 5 22 12 NNE 995,9 17 0 0,4
22.01.2021 13:00:00 3,3 2,0 3,2 5,1 5,9 8 4 25 13 N 996,3 17 0 0,4
22.01.2021 12:00:00 3,5 1,9 3,2 5,1 5,9 9 5 25 13 NNE 996,3 50 0 0,4
22.01.2021 11:00:00 3,7 1,9 3,3 5,0 5,8 8 5 35 19 NW 995,9 13 0 1,2
22.01.2021 10:00:00 5,4 4,2 5,0 5,0 5,8 23 12 54 29 NW 993,8 4,6 0 0,8
22.01.2021 09:00:00 10,1 5,3 8,0 5,0 5,8 29 16 54 29 SSW 992,1 60 0 0,0
22.01.2021 08:00:00 10,1 5,3 7,9 5,0 5,8 33 18 60 33 SSW 992,0 60 0 0,0
22.01.2021 07:00:00 9,4 5,9 8,0 4,9 5,8 32 17 74 40 SSW 992,1 20 0 0,2
22.01.2021 06:00:00 9,9 5,5 8,6 4,9 5,8 36 19 68 37 SSW 992,3 60 0 0,0
22.01.2021 05:00:00 9,8 5,6 7,9 4,9 5,8 30 16 69 38 SSW 992,8 60 0 0,0
22.01.2021 04:00:00 9,8 6,0 7,8 4,8 5,8 30 16 64 34 SSW 993,3 18 0 0,4
22.01.2021 03:00:00 9,8 6,0 7,9 4,8 5,8 34 18 67 36 SSW 993,4 55 0 0,0
22.01.2021 02:00:00 10,2 5,8 8,1 4,8 5,8 36 20 63 34 SSW 993,5 57 0 0,2
22.01.2021 01:00:00 10,0 6,3 8,3 4,7 5,8 34 19 67 36 SSW 993,8 49 0 0,0
22.01.2021 00:00:00 10,6 5,8 9,6 4,7 5,8 32 17 74 40 SSW 993,7 60 0 0,0
21.01.2021 23:00:00 10,9 6,2 9,0 4,6 5,8 35 19 65 35 SSW 994,0 60 0 0,0
21.01.2021 22:00:00 10,6 6,3 8,9 4,6 5,8 30 16 60 32 SSW 994,2 60 0 0,0
21.01.2021 21:00:00 10,6 7,1 8,7 4,5 5,8 31 17 62 33 SSW 994,9 60 0 0,0
21.01.2021 20:00:00 10,1 7,5 8,5 4,5 5,8 34 18 58 31 SSW 995,2 46 0 0,4
21.01.2021 19:00:00 10,6 6,9 8,7 4,4 5,8 26 14 48 26 S 995,8 36 0 0,0
21.01.2021 18:00:00 10,5 6,8 8,6 4,3 5,8 22 12 44 24 S 996,6 3,5 0 0,0
21.01.2021 17:00:00 10,2 7,3 8,0 4,2 5,8 18 10 35 19 S 997,4 30 0 0,4
21.01.2021 16:00:00 8,9 7,2 7,9 4,1 5,8 12 6 50 27 SSW 999,0 43 0 0,2
21.01.2021 15:00:00 10,0 5,6 9,3 4,0 5,8 21 11 42 23 SSW 999,4 60 2 0,0
21.01.2021 14:00:00 10,1 4,5 8,7 4,0 5,8 18 10 43 23 SW 1000,2 60 24 0,0
21.01.2021 13:00:00 9,3 4,9 7,1 3,9 5,8 22 12 43 23 SW 1001,1 58 4 0,0
21.01.2021 12:00:00 7,8 4,7 5,7 3,8 5,8 17 9 42 23 SW 1001,5 60 0 0,2
21.01.2021 11:00:00 6,5 4,5 5,6 3,8 5,8 24 13 48 26 W 1001,7 5 0 1,0
21.01.2021 10:00:00 7,6 5,6 6,6 3,7 5,8 22 12 74 40 W 1000,7 2,9 0 1,6
21.01.2021 09:00:00 10,5 5,9 8,9 3,6 5,8 34 18 66 36 SSW 998,5 60 0 0,0
21.01.2021 08:00:00 10,6 5,1 9,3 3,6 5,8 36 20 71 39 SSW 997,7 60 0 0,0
21.01.2021 07:00:00 10,8 5,1 8,4 3,5 5,8 32 17 65 35 SSW 997,9 60 0 0,0
21.01.2021 06:00:00 11,0 4,4 9,4 3,5 5,8 37 20 76 41 S 997,5 60 0 0,0
21.01.2021 05:00:00 11,1 3,9 9,8 3,4 5,8 34 18 80 43 SSW 997,6 60 0 0,0
21.01.2021 04:00:00 11,0 3,8 9,2 3,4 5,8 39 21 72 39 SSW 997,6 60 0 0,0
21.01.2021 03:00:00 11,2 2,7 9,6 3,3 5,8 36 19 70 38 SSW 997,8 60 0 0,0
21.01.2021 02:00:00 11,3 2,3 9,9 3,3 5,9 37 20 80 43 S 997,8 60 0 0,0
21.01.2021 01:00:00 11,9 2,6 10,1 3,2 5,9 41 22 73 39 SSW 998,5 60 0 0,0
21.01.2021 00:00:00 11,3 2,6 9,8 3,1 5,9 35 19 65 35 S 999,1 60 0 0,0
20.01.2021 23:00:00 11,3 2,6 9,6 3,1 5,9 36 20 66 36 SSW 999,6 60 0 0,0
20.01.2021 22:00:00 10,9 2,7 9,6 3,0 5,9 27 15 64 35 S 1000,6 60 0 0,0
20.01.2021 21:00:00 11,2 3,0 9,6 3,0 5,9 29 16 55 30 S 1000,5 60 0 0,0
20.01.2021 20:00:00 11,0 3,0 9,2 2,8 5,9 29 16 60 32 SSW 1001,1 60 0 0,0
20.01.2021 19:00:00 10,8 3,1 9,2 2,8 5,9 27 14 51 28 S 1001,3 60 0 0,0
20.01.2021 18:00:00 10,9 3,4 9,2 2,6 5,9 23 12 49 26 SSW 1001,7 60 0 0,0
20.01.2021 17:00:00 11,4 3,7 10,0 2,6 5,9 29 16 51 28 S 1001,6 60 43 0,0
20.01.2021 16:00:00 11,6 3,9 10,6 2,4 5,9 24 13 54 29 SSW 1002,3 60 15 0,0
20.01.2021 15:00:00 12,4 3,9 11,6 2,3 5,9 25 13 50 27 SSW 1002,5 54 37 0,0
20.01.2021 14:00:00 12,1 4,3 11,8 2,3 5,9 26 14 63 34 S 1003,2 42 58 0,0
20.01.2021 13:00:00 11,4 4,6 9,7 2,3 5,9 29 16 58 31 S 1004,2 53 54 0,0
20.01.2021 12:00:00 10,2 4,1 8,1 2,3 5,9 24 13 51 27 S 1005,6 34 60 0,0
20.01.2021 11:00:00 8,6 3,4 5,7 2,3 5,9 28 15 55 30 SSW 1006,6 60 8 0,0
20.01.2021 10:00:00 7,1 2,6 4,7 2,3 5,9 20 11 45 24 S 1007,6 53 36 0,0
20.01.2021 09:00:00 6,0 1,9 3,7 2,3 5,9 15 8 31 17 S 1008,2 53 0 0,0
20.01.2021 08:00:00 5,4 1,7 3,2 2,3 5,9 12 6 29 15 S 1008,8 45 0 0,0
20.01.2021 07:00:00 5,0 0,7 3,1 2,4 5,9 14 8 38 21 S 1009,3 47 0 0,0
20.01.2021 06:00:00 4,6 -0,6 2,4 2,4 5,9 22 12 36 19 S 1009,8 57 0 0,0
20.01.2021 05:00:00 4,0 -1,8 0,3 2,4 5,9 11 6 21 11 S 1010,6 60 0 0,0
20.01.2021 04:00:00 2,7 -2,2 -0,3 2,4 5,9 9 5 16 9 SE 1011,5 60 0 0,0
20.01.2021 03:00:00 2,7 -2,2 0,1 2,4 5,9 4 2 17 9 S 1012,0 59 0 0,0
20.01.2021 02:00:00 3,3 -2,5 -0,4 2,4 5,9 8 4 17 9 SSE 1012,3 60 0 0,0
20.01.2021 01:00:00 3,0 -2,5 0,6 2,4 5,9 8 4 19 10 ESE 1012,9 57 0 0,0
20.01.2021 00:00:00 3,5 -2,3 0,1 2,4 6,0 9 5 19 11 SSE 1013,4 53 0 0,0
19.01.2021 23:00:00 2,9 -2,0 0,0 2,4 5,9 9 5 22 12 SSE 1013,9 42 0 0,0
19.01.2021 22:00:00 3,2 -1,8 0,4 2,4 5,9 16 8 26 14 SSE 1014,5 39 0 0,0
19.01.2021 21:00:00 2,4 -2,5 0,1 2,4 6,0 13 7 19 10 ESE 1015,0 53 0 0,0
19.01.2021 20:00:00 2,6 -1,9 0,5 2,4 6,0 6 3 25 13 SE 1015,1 48 0 0,0
19.01.2021 19:00:00 3,2 -1,6 1,6 2,4 5,9 19 11 31 17 S 1015,4 44 0 0,0
19.01.2021 18:00:00 3,1 -1,7 1,8 2,4 6,0 20 11 37 20 SSE 1015,9 43 0 0,0
19.01.2021 17:00:00 3,7 -1,1 2,0 2,4 6,0 16 9 31 17 S 1016,3 41 15 0,0
19.01.2021 16:00:00 3,6 -0,6 2,3 2,4 6,0 15 8 37 20 SE 1016,4 39 0 0,0
19.01.2021 15:00:00 3,9 -0,5 2,5 2,4 6,0 19 10 31 17 S 1016,5 31 0 0,0
19.01.2021 14:00:00 3,8 -0,2 2,1 2,4 6,0 18 10 35 19 SSW 1017,1 30 0 0,0
19.01.2021 13:00:00 3,3 0,3 1,8 2,4 6,0 16 9 31 17 S 1017,8 18 0 0,0
19.01.2021 12:00:00 3,1 0,7 1,6 2,4 6,0 13 7 33 18 S 1018,5 8 0 0,4
19.01.2021 11:00:00 3,1 -0,5 1,9 2,4 6,0 16 9 32 17 S 1018,9 18 0 0,0
19.01.2021 10:00:00 2,6 -0,5 1,7 2,4 6,0 16 9 26 14 S 1019,4 29 0 0,0
19.01.2021 09:00:00 2,1 -0,5 1,4 2,4 6,0 18 10 31 17 S 1019,8 24 0 0,0
19.01.2021 08:00:00 2,1 -0,3 1,2 2,4 6,0 16 8 28 15 S 1020,4 20 0 0,0
19.01.2021 07:00:00 1,8 -0,5 0,8 2,4 6,0 15 8 32 18 S 1020,9 21 0 0,0
19.01.2021 06:00:00 1,7 -0,4 0,7 2,4 6,0 17 9 32 17 S 1021,5 21 0 0,0
19.01.2021 05:00:00 1,7 -0,2 1,1 2,4 6,0 11 6 29 16 S 1022,5 21 0 0,0
19.01.2021 04:00:00 1,5 -0,4 0,2 2,4 6,0 13 7 26 14 SSW 1023,3 14 0 0,0
19.01.2021 03:00:00 1,4 -0,8 -0,2 2,4 6,0 12 6 21 11 SSW 1023,9 16 0 0,0
19.01.2021 02:00:00 1,6 -0,7 0,4 2,4 6,0 10 5 21 11 S 1024,4 27 0 0,0
19.01.2021 01:00:00 2,2 -0,4 1,5 2,4 6,0 13 7 21 12 S 1025,1 31 0 0,0
19.01.2021 00:00:00 2,2 -0,1 1,3 2,4 6,0 7 4 16 8 S 1025,7 22 0 0,0
18.01.2021 23:00:00 2,3 0,2 1,3 2,4 6,0 9 5 20 11 S 1026,0 19 0 0,0
18.01.2021 22:00:00 2,3 0,2 1,2 2,4 6,0 8 4 21 11 S 1026,7 20 0 0,0
18.01.2021 21:00:00 2,0 0,2 1,2 2,4 6,0 11 6 26 14 S 1027,0 18 0 0,0
18.01.2021 20:00:00 2,3 0,2 1,7 2,4 6,0 12 6 21 11 S 1027,1 24 0 0,0
18.01.2021 19:00:00 2,9 0,0 2,0 2,4 6,1 10 5 19 10 S 1027,1 28 0 0,0
18.01.2021 18:00:00 3,3 0,0 2,1 2,4 6,0 9 5 19 10 SSW 1026,8 32 0 0,0
18.01.2021 17:00:00 3,7 0,2 2,5 2,4 6,1 9 5 20 11 S 1026,6 33 21 0,0
18.01.2021 16:00:00 4,8 0,2 4,2 2,4 6,1 12 7 24 13 SSW 1026,6 48 45 0,0
18.01.2021 15:00:00 4,7 0,1 4,2 2,4 6,1 12 6 22 12 S 1026,9 35 10 0,0
18.01.2021 14:00:00 5,2 0,0 4,8 2,3 6,1 13 7 22 12 SSW 1027,3 48 24 0,0
18.01.2021 13:00:00 5,1 -0,3 3,1 2,3 6,1 10 5 18 10 SW 1028,1 43 9 0,0
18.01.2021 12:00:00 4,1 0,1 2,8 2,3 6,1 4 2 15 8 SE 1028,6 39 22 0,0
18.01.2021 11:00:00 3,5 0,5 2,2 2,3 6,1 5 3 9 5 S 1028,9 20 0 0,0
18.01.2021 10:00:00 2,6 0,7 1,4 2,3 6,1 3 2 10 5 ESE 1029,0 22 0 0,0
18.01.2021 09:00:00 2,4 0,6 0,4 2,3 6,1 4 2 9 5 SW 1028,8 35 0 0,0
18.01.2021 08:00:00 1,9 0,7 0,2 2,3 6,1 3 2 8 4 SW 1028,4 13 0 0,0
18.01.2021 07:00:00 2,1 0,6 1,0 2,3 6,1 2 1 9 5 W 1028,1 44 0 0,0
18.01.2021 06:00:00 2,3 0,7 1,3 2,3 6,1 4 2 17 9 WNW 1028,1 42 0 0,0
18.01.2021 05:00:00 2,2 0,7 0,7 2,3 6,1 7 4 13 7 SW 1027,8 35 0 0,0

tt = Température de l'air
td = dewpoint
tt 5cm = Température de l'air 5cm
tt -20cm = Température de l'air -20cm
tt -100cm = Température de l'air -100cm
ff = Vitesse du vent
fx = gusts
dd = Direction du vent
ppp = reduced air pressure
vv = visibility
sd = Ensoleillement
rr = Quantités de précipitations

stations d'obs. à proximité